Year,Month,Day,Hour,Minute,Value (Times are PST for temperature in C)
2018,06,10,00,00,11.00
2018,06,10,00,01,11.00
2018,06,10,00,02,11.00
2018,06,10,00,03,10.90
2018,06,10,00,04,10.90
2018,06,10,00,05,10.90
2018,06,10,00,06,10.90
2018,06,10,00,07,10.90
2018,06,10,00,08,10.90
2018,06,10,00,09,10.90
2018,06,10,00,10,10.90
2018,06,10,00,11,10.90
2018,06,10,00,12,10.90
2018,06,10,00,13,10.90
2018,06,10,00,14,10.90
2018,06,10,00,15,10.90
2018,06,10,00,16,10.90
2018,06,10,00,17,10.90
2018,06,10,00,18,10.80
2018,06,10,00,19,10.80
2018,06,10,00,20,10.80
2018,06,10,00,21,10.80
2018,06,10,00,22,10.80
2018,06,10,00,23,10.80
2018,06,10,00,24,10.80
2018,06,10,00,25,10.80
2018,06,10,00,26,10.80
2018,06,10,00,27,10.80
2018,06,10,00,28,10.80
2018,06,10,00,29,10.80
2018,06,10,00,30,10.80
2018,06,10,00,31,10.70
2018,06,10,00,32,10.70
2018,06,10,00,33,10.70
2018,06,10,00,34,10.70
2018,06,10,00,35,10.70
2018,06,10,00,36,10.70
2018,06,10,00,37,10.70
2018,06,10,00,38,10.70
2018,06,10,00,39,10.60
2018,06,10,00,40,10.60
2018,06,10,00,41,10.60
2018,06,10,00,42,10.60
2018,06,10,00,43,10.60
2018,06,10,00,44,10.60
2018,06,10,00,45,10.60
2018,06,10,00,46,10.50
2018,06,10,00,47,10.50
2018,06,10,00,48,10.50
2018,06,10,00,49,10.50
2018,06,10,00,50,10.50
2018,06,10,00,51,10.50
2018,06,10,00,52,10.50
2018,06,10,00,53,10.50
2018,06,10,00,54,10.50
2018,06,10,00,55,10.50
2018,06,10,00,56,10.50
2018,06,10,00,57,10.50
2018,06,10,00,58,10.50
2018,06,10,00,59,10.50
2018,06,10,01,00,10.50
2018,06,10,01,01,10.50
2018,06,10,01,02,10.50
2018,06,10,01,03,10.50
2018,06,10,01,04,10.50
2018,06,10,01,05,10.50
2018,06,10,01,06,10.40
2018,06,10,01,07,10.40
2018,06,10,01,08,10.40
2018,06,10,01,09,10.40
2018,06,10,01,10,10.40
2018,06,10,01,11,10.40
2018,06,10,01,12,10.40
2018,06,10,01,13,10.40
2018,06,10,01,14,10.40
2018,06,10,01,15,10.40
2018,06,10,01,16,10.40
2018,06,10,01,17,10.30
2018,06,10,01,18,10.30
2018,06,10,01,19,10.30
2018,06,10,01,20,10.30
2018,06,10,01,21,10.30
2018,06,10,01,22,10.30
2018,06,10,01,23,10.30
2018,06,10,01,24,10.30
2018,06,10,01,25,10.30
2018,06,10,01,26,10.30
2018,06,10,01,27,10.30
2018,06,10,01,28,10.30
2018,06,10,01,29,10.30
2018,06,10,01,30,10.30
2018,06,10,01,31,10.30
2018,06,10,01,32,10.30
2018,06,10,01,33,10.30
2018,06,10,01,34,10.30
2018,06,10,01,35,10.30
2018,06,10,01,36,10.30
2018,06,10,01,37,10.30
2018,06,10,01,38,10.30
2018,06,10,01,39,10.40
2018,06,10,01,40,10.40
2018,06,10,01,41,10.40
2018,06,10,01,42,10.40
2018,06,10,01,43,10.40
2018,06,10,01,44,10.40
2018,06,10,01,45,10.40
2018,06,10,01,46,10.40
2018,06,10,01,47,10.40
2018,06,10,01,48,10.40
2018,06,10,01,49,10.40
2018,06,10,01,50,10.40
2018,06,10,01,51,10.50
2018,06,10,01,52,10.50
2018,06,10,01,53,10.50
2018,06,10,01,54,10.40
2018,06,10,01,55,10.40
2018,06,10,01,56,10.40
2018,06,10,01,57,10.40
2018,06,10,01,58,10.40
2018,06,10,01,59,10.40
2018,06,10,02,00,10.40
2018,06,10,02,01,10.40
2018,06,10,02,02,10.40
2018,06,10,02,03,10.40
2018,06,10,02,04,10.40
2018,06,10,02,05,10.40
2018,06,10,02,06,10.30
2018,06,10,02,07,10.30
2018,06,10,02,08,10.30
2018,06,10,02,09,10.30
2018,06,10,02,10,10.30
2018,06,10,02,11,10.30
2018,06,10,02,12,10.30
2018,06,10,02,13,10.30
2018,06,10,02,14,10.30
2018,06,10,02,15,10.30
2018,06,10,02,16,10.30
2018,06,10,02,17,10.30
2018,06,10,02,18,10.20
2018,06,10,02,19,10.20
2018,06,10,02,20,10.20
2018,06,10,02,21,10.20
2018,06,10,02,22,10.20
2018,06,10,02,23,10.20
2018,06,10,02,24,10.20
2018,06,10,02,25,10.20
2018,06,10,02,26,10.20
2018,06,10,02,27,10.20
2018,06,10,02,28,10.20
2018,06,10,02,29,10.20
2018,06,10,02,30,10.20
2018,06,10,02,31,10.20
2018,06,10,02,32,10.20
2018,06,10,02,33,10.20
2018,06,10,02,34,10.20
2018,06,10,02,35,10.20
2018,06,10,02,36,10.20
2018,06,10,02,37,10.10
2018,06,10,02,38,10.10
2018,06,10,02,39,10.10
2018,06,10,02,40,10.10
2018,06,10,02,41,10.20
2018,06,10,02,42,10.20
2018,06,10,02,43,10.20
2018,06,10,02,44,10.20
2018,06,10,02,45,10.20
2018,06,10,02,46,10.10
2018,06,10,02,47,10.10
2018,06,10,02,48,10.10
2018,06,10,02,49,10.10
2018,06,10,02,50,10.10
2018,06,10,02,51,10.10
2018,06,10,02,52,10.10
2018,06,10,02,53,10.10
2018,06,10,02,54,10.10
2018,06,10,02,55,10.10
2018,06,10,02,56,10.10
2018,06,10,02,57,10.10
2018,06,10,02,58,10.10
2018,06,10,02,59,10.10
2018,06,10,03,00,10.00
2018,06,10,03,01,10.00
2018,06,10,03,02,10.00
2018,06,10,03,03,10.00
2018,06,10,03,04,10.00
2018,06,10,03,05,10.00
2018,06,10,03,06,10.00
2018,06,10,03,07,10.00
2018,06,10,03,08,10.10
2018,06,10,03,09,10.10
2018,06,10,03,10,10.10
2018,06,10,03,11,10.10
2018,06,10,03,12,10.10
2018,06,10,03,13,10.10
2018,06,10,03,14,10.10
2018,06,10,03,15,10.10
2018,06,10,03,16,10.10
2018,06,10,03,17,10.10
2018,06,10,03,18,10.10
2018,06,10,03,19,10.10
2018,06,10,03,20,10.10
2018,06,10,03,21,10.10
2018,06,10,03,22,10.10
2018,06,10,03,23,10.10
2018,06,10,03,24,10.10
2018,06,10,03,25,10.10
2018,06,10,03,26,10.10
2018,06,10,03,27,10.10
2018,06,10,03,28,10.10
2018,06,10,03,29,10.10
2018,06,10,03,30,10.10
2018,06,10,03,31,10.10
2018,06,10,03,32,10.10
2018,06,10,03,33,10.10
2018,06,10,03,34,10.10
2018,06,10,03,35,10.10
2018,06,10,03,36,10.10
2018,06,10,03,37,10.10
2018,06,10,03,38,10.10
2018,06,10,03,39,10.10
2018,06,10,03,40,10.10
2018,06,10,03,41,10.10
2018,06,10,03,42,10.20
2018,06,10,03,43,10.20
2018,06,10,03,44,10.20
2018,06,10,03,45,10.20
2018,06,10,03,46,10.20
2018,06,10,03,47,10.20
2018,06,10,03,48,10.20
2018,06,10,03,49,10.20
2018,06,10,03,50,10.20
2018,06,10,03,51,10.20
2018,06,10,03,52,10.30
2018,06,10,03,53,10.30
2018,06,10,03,54,10.30
2018,06,10,03,55,10.30
2018,06,10,03,56,10.30
2018,06,10,03,57,10.30
2018,06,10,03,58,10.30
2018,06,10,03,59,10.30
2018,06,10,04,00,10.30
2018,06,10,04,01,10.30
2018,06,10,04,02,10.30
2018,06,10,05,04,9.30
2018,06,10,05,05,9.30
2018,06,10,05,06,9.30
2018,06,10,05,07,9.20
2018,06,10,05,08,9.20
2018,06,10,05,09,9.20
2018,06,10,05,10,9.20
2018,06,10,05,11,9.20
2018,06,10,05,12,9.20
2018,06,10,05,13,9.20
2018,06,10,05,14,9.20
2018,06,10,05,15,9.20
2018,06,10,05,16,9.20
2018,06,10,05,17,9.20
2018,06,10,05,18,9.10
2018,06,10,05,19,9.10
2018,06,10,05,20,9.10
2018,06,10,05,21,9.10
2018,06,10,05,22,9.10
2018,06,10,05,23,9.10
2018,06,10,05,24,9.10
2018,06,10,05,25,9.10
2018,06,10,05,26,9.00
2018,06,10,05,27,9.00
2018,06,10,05,28,9.00
2018,06,10,05,29,9.00
2018,06,10,05,30,9.00
2018,06,10,05,31,8.90
2018,06,10,05,32,8.90
2018,06,10,05,33,8.90
2018,06,10,05,34,8.90
2018,06,10,05,35,8.90
2018,06,10,05,36,8.90
2018,06,10,05,37,8.90
2018,06,10,05,38,8.90
2018,06,10,05,39,8.90
2018,06,10,05,40,8.90
2018,06,10,05,41,8.90
2018,06,10,05,42,8.90
2018,06,10,05,43,8.90
2018,06,10,05,44,8.90
2018,06,10,05,45,8.80
2018,06,10,05,46,8.80
2018,06,10,05,47,8.90
2018,06,10,05,48,8.90
2018,06,10,05,49,8.90
2018,06,10,05,50,8.90
2018,06,10,05,51,8.90
2018,06,10,05,52,8.90
2018,06,10,05,53,9.00
2018,06,10,05,54,9.00
2018,06,10,05,55,9.00
2018,06,10,05,56,9.10
2018,06,10,05,57,9.10
2018,06,10,05,58,9.10
2018,06,10,05,59,9.10
2018,06,10,06,00,9.10
2018,06,10,06,01,9.10
2018,06,10,06,02,9.10
2018,06,10,06,03,9.10
2018,06,10,06,04,9.10
2018,06,10,06,05,9.10
2018,06,10,06,06,9.10
2018,06,10,06,07,9.10
2018,06,10,06,08,9.10
2018,06,10,06,09,9.10
2018,06,10,06,10,9.10
2018,06,10,06,11,9.10
2018,06,10,06,12,9.10
2018,06,10,06,13,9.20
2018,06,10,06,14,9.20
2018,06,10,06,15,9.20
2018,06,10,06,16,9.20
2018,06,10,06,17,9.20
2018,06,10,06,18,9.30
2018,06,10,06,19,9.30
2018,06,10,06,20,9.30
2018,06,10,06,21,9.30
2018,06,10,06,22,9.40
2018,06,10,06,23,9.40
2018,06,10,06,24,9.40
2018,06,10,06,25,9.50
2018,06,10,06,26,9.50
2018,06,10,06,27,9.60
2018,06,10,06,28,9.60
2018,06,10,06,29,9.70
2018,06,10,06,30,9.70
2018,06,10,06,31,9.80
2018,06,10,06,32,9.80
2018,06,10,06,33,9.90
2018,06,10,06,34,9.90
2018,06,10,06,35,10.00
2018,06,10,06,36,10.00
2018,06,10,06,37,10.10
2018,06,10,06,38,10.10
2018,06,10,06,39,10.20
2018,06,10,06,40,10.20
2018,06,10,06,41,10.20
2018,06,10,06,42,10.30
2018,06,10,06,43,10.30
2018,06,10,06,44,10.40
2018,06,10,06,45,10.40
2018,06,10,06,46,10.40
2018,06,10,06,47,10.40
2018,06,10,06,48,10.50
2018,06,10,06,49,10.50
2018,06,10,06,50,10.50
2018,06,10,06,51,10.60
2018,06,10,06,52,10.60
2018,06,10,06,53,10.60
2018,06,10,06,54,10.60
2018,06,10,06,55,10.70
2018,06,10,06,56,10.70
2018,06,10,06,57,10.70
2018,06,10,06,58,10.80
2018,06,10,06,59,10.80
2018,06,10,07,00,10.80
2018,06,10,07,01,10.80
2018,06,10,07,02,10.90
2018,06,10,07,03,10.90
2018,06,10,07,04,10.90
2018,06,10,07,05,10.90
2018,06,10,07,06,11.00
2018,06,10,07,07,11.00
2018,06,10,07,08,11.10
2018,06,10,07,09,11.10
2018,06,10,07,10,11.10
2018,06,10,07,11,11.10
2018,06,10,07,12,11.20
2018,06,10,07,13,11.20
2018,06,10,07,14,11.20
2018,06,10,07,15,11.20
2018,06,10,07,16,11.20
2018,06,10,07,17,11.20
2018,06,10,07,18,11.30
2018,06,10,07,19,11.30
2018,06,10,07,20,11.30
2018,06,10,07,21,11.30
2018,06,10,07,22,11.30
2018,06,10,07,23,11.30
2018,06,10,07,24,11.30
2018,06,10,07,25,11.30
2018,06,10,07,26,11.30
2018,06,10,07,27,11.40
2018,06,10,07,28,11.40
2018,06,10,07,29,11.40
2018,06,10,07,30,11.40
2018,06,10,07,31,11.40
2018,06,10,07,32,11.40
2018,06,10,07,33,11.40
2018,06,10,07,34,11.40
2018,06,10,07,35,11.40
2018,06,10,07,36,11.40
2018,06,10,07,37,11.40
2018,06,10,07,38,11.40
2018,06,10,07,39,11.40
2018,06,10,07,40,11.40
2018,06,10,07,41,11.40
2018,06,10,07,42,11.30
2018,06,10,07,43,11.30
2018,06,10,07,44,11.20
2018,06,10,07,45,11.10
2018,06,10,07,46,11.10
2018,06,10,07,47,11.10
2018,06,10,07,48,11.00
2018,06,10,07,49,11.00
2018,06,10,07,50,11.00
2018,06,10,07,51,11.00
2018,06,10,07,52,11.00
2018,06,10,07,53,11.00
2018,06,10,07,54,11.00
2018,06,10,07,55,10.90
2018,06,10,07,56,10.90
2018,06,10,07,57,10.90
2018,06,10,07,58,10.90
2018,06,10,07,59,10.90
2018,06,10,08,00,10.90
2018,06,10,08,01,10.90
2018,06,10,08,02,10.90
2018,06,10,08,03,10.80
2018,06,10,08,04,10.90
2018,06,10,08,05,10.90
2018,06,10,08,06,10.90
2018,06,10,08,07,10.90
2018,06,10,08,08,10.90
2018,06,10,08,09,10.90
2018,06,10,08,10,11.00
2018,06,10,08,11,11.00
2018,06,10,08,12,11.10
2018,06,10,08,13,11.10
2018,06,10,08,14,11.20
2018,06,10,08,15,11.20
2018,06,10,08,16,11.20
2018,06,10,08,17,11.20
2018,06,10,08,18,11.20
2018,06,10,08,19,11.20
2018,06,10,08,20,11.20
2018,06,10,08,21,11.30
2018,06,10,08,22,11.30
2018,06,10,08,23,11.40
2018,06,10,08,24,11.50
2018,06,10,08,25,11.50
2018,06,10,08,26,11.60
2018,06,10,08,27,11.70
2018,06,10,08,28,11.70
2018,06,10,08,29,11.80
2018,06,10,08,30,11.80
2018,06,10,08,31,11.90
2018,06,10,08,32,11.90
2018,06,10,08,33,12.00
2018,06,10,08,34,12.10
2018,06,10,08,35,12.20
2018,06,10,08,36,12.30
2018,06,10,08,37,12.30
2018,06,10,08,38,12.40
2018,06,10,08,39,12.40
2018,06,10,08,40,12.40
2018,06,10,08,41,12.50
2018,06,10,08,42,12.50
2018,06,10,08,43,12.60
2018,06,10,08,44,12.60
2018,06,10,08,45,12.60
2018,06,10,08,46,12.60
2018,06,10,08,47,12.60
2018,06,10,08,48,12.60
2018,06,10,08,49,12.60
2018,06,10,08,50,12.50
2018,06,10,08,51,12.60
2018,06,10,08,52,12.60
2018,06,10,08,53,12.60
2018,06,10,08,54,12.60
2018,06,10,08,55,12.70
2018,06,10,08,56,12.70
2018,06,10,08,57,12.80
2018,06,10,08,58,12.80
2018,06,10,08,59,12.80
2018,06,10,09,00,12.80
2018,06,10,09,01,12.80
2018,06,10,09,02,12.70
2018,06,10,09,03,12.70
2018,06,10,09,04,12.70
2018,06,10,09,05,12.70
2018,06,10,09,06,12.70
2018,06,10,09,07,12.70
2018,06,10,09,08,12.70
2018,06,10,09,09,12.60
2018,06,10,09,10,12.60
2018,06,10,09,11,12.50
2018,06,10,09,12,12.50
2018,06,10,09,13,12.60
2018,06,10,09,14,12.60
2018,06,10,09,15,12.60
2018,06,10,09,16,12.60
2018,06,10,09,17,12.60
2018,06,10,09,18,12.60
2018,06,10,09,19,12.60
2018,06,10,09,20,12.60
2018,06,10,09,21,12.60
2018,06,10,09,22,12.60
2018,06,10,09,23,12.60
2018,06,10,09,24,12.60
2018,06,10,09,25,12.60
2018,06,10,09,26,12.60
2018,06,10,09,27,12.60
2018,06,10,09,28,12.70
2018,06,10,09,29,12.70
2018,06,10,09,30,12.70
2018,06,10,09,31,12.70
2018,06,10,09,32,12.70
2018,06,10,09,33,12.70
2018,06,10,09,34,12.70
2018,06,10,09,35,12.80
2018,06,10,09,36,12.80
2018,06,10,09,37,12.80
2018,06,10,09,38,12.80
2018,06,10,09,39,12.90
2018,06,10,09,40,12.90
2018,06,10,09,41,12.90
2018,06,10,09,42,13.00
2018,06,10,09,43,13.00
2018,06,10,09,44,13.10
2018,06,10,09,45,13.10
2018,06,10,09,46,13.20
2018,06,10,09,47,13.20
2018,06,10,09,48,13.20
2018,06,10,09,49,13.30
2018,06,10,09,50,13.30
2018,06,10,09,51,13.30
2018,06,10,09,52,13.30
2018,06,10,09,53,13.20
2018,06,10,09,54,13.20
2018,06,10,09,55,13.20
2018,06,10,09,56,13.20
2018,06,10,09,57,13.10
2018,06,10,09,58,13.10
2018,06,10,09,59,13.10
2018,06,10,10,00,13.10
2018,06,10,10,01,13.10
2018,06,10,10,02,13.20
2018,06,10,10,03,13.20
2018,06,10,10,04,13.20
2018,06,10,10,05,13.20
2018,06,10,10,06,13.20
2018,06,10,10,07,13.20
2018,06,10,10,08,13.20
2018,06,10,10,09,13.20
2018,06,10,10,10,13.20
2018,06,10,10,11,13.20
2018,06,10,10,12,13.20
2018,06,10,10,13,13.30
2018,06,10,10,14,13.30
2018,06,10,10,15,13.30
2018,06,10,10,16,13.30
2018,06,10,10,17,13.30
2018,06,10,10,18,13.20
2018,06,10,10,19,13.20
2018,06,10,10,20,13.20
2018,06,10,10,21,13.20
2018,06,10,10,22,13.30
2018,06,10,10,23,13.30
2018,06,10,10,24,13.30
2018,06,10,10,25,13.40
2018,06,10,10,26,13.50
2018,06,10,10,27,13.50
2018,06,10,10,28,13.60
2018,06,10,10,29,13.60
2018,06,10,10,30,13.70
2018,06,10,10,31,13.80
2018,06,10,10,32,13.80
2018,06,10,10,33,13.90
2018,06,10,10,34,14.00
2018,06,10,10,35,14.10
2018,06,10,10,36,14.10
2018,06,10,10,37,14.20
2018,06,10,10,38,14.20
2018,06,10,10,39,14.20
2018,06,10,10,40,14.20
2018,06,10,10,41,14.20
2018,06,10,10,42,14.20
2018,06,10,10,43,14.10
2018,06,10,10,44,14.20
2018,06,10,10,45,14.10
2018,06,10,10,46,14.10
2018,06,10,10,47,14.00
2018,06,10,10,48,13.90
2018,06,10,10,49,13.90
2018,06,10,10,50,13.90
2018,06,10,10,51,13.90
2018,06,10,10,52,13.90
2018,06,10,10,53,13.80
2018,06,10,10,54,13.80
2018,06,10,10,55,13.90
2018,06,10,10,56,13.80
2018,06,10,10,57,13.80
2018,06,10,10,58,13.80
2018,06,10,10,59,13.90
2018,06,10,11,00,13.90
2018,06,10,11,01,13.90
2018,06,10,11,02,13.80
2018,06,10,11,03,13.80
2018,06,10,11,04,13.80
2018,06,10,11,05,13.80
2018,06,10,11,06,13.80
2018,06,10,11,07,13.80
2018,06,10,11,08,13.70
2018,06,10,11,09,13.70
2018,06,10,11,10,13.70
2018,06,10,11,11,13.80
2018,06,10,11,12,13.80
2018,06,10,11,13,13.90
2018,06,10,11,14,14.10
2018,06,10,11,15,14.20
2018,06,10,11,16,14.30
2018,06,10,11,17,14.40
2018,06,10,11,18,14.40
2018,06,10,11,19,14.40
2018,06,10,11,20,14.30
2018,06,10,11,21,14.30
2018,06,10,11,22,14.20
2018,06,10,11,23,14.20
2018,06,10,11,24,14.10
2018,06,10,11,25,14.10
2018,06,10,11,26,14.10
2018,06,10,11,27,14.10
2018,06,10,11,28,14.20
2018,06,10,11,29,14.30
2018,06,10,11,30,14.40
2018,06,10,11,31,14.40
2018,06,10,11,32,14.50
2018,06,10,11,33,14.60
2018,06,10,11,34,14.60
2018,06,10,11,35,14.70
2018,06,10,11,36,14.80
2018,06,10,11,37,14.80
2018,06,10,11,38,14.80
2018,06,10,11,39,14.90
2018,06,10,11,40,14.90
2018,06,10,11,41,14.90
2018,06,10,11,42,15.00
2018,06,10,11,43,15.00
2018,06,10,11,44,15.00
2018,06,10,11,45,15.00
2018,06,10,11,46,15.10
2018,06,10,11,47,15.10
2018,06,10,11,48,15.10
2018,06,10,11,49,15.10
2018,06,10,11,50,15.10
2018,06,10,11,51,15.10
2018,06,10,11,52,15.10
2018,06,10,11,53,15.20
2018,06,10,11,54,15.20
2018,06,10,11,55,15.30
2018,06,10,11,56,15.30
2018,06,10,11,57,15.30
2018,06,10,11,58,15.40
2018,06,10,11,59,15.50
2018,06,10,12,00,15.60
2018,06,10,12,01,15.60
2018,06,10,12,02,15.60
2018,06,10,12,03,15.50
2018,06,10,12,04,15.40
2018,06,10,12,05,15.30
2018,06,10,12,06,15.30
2018,06,10,12,07,15.30
2018,06,10,12,08,15.40
2018,06,10,12,09,15.40
2018,06,10,12,10,15.40
2018,06,10,12,11,15.30
2018,06,10,12,12,15.30
2018,06,10,12,13,15.20
2018,06,10,12,14,15.20
2018,06,10,12,15,15.20
2018,06,10,12,16,15.20
2018,06,10,12,17,15.20
2018,06,10,12,18,15.20
2018,06,10,12,19,15.30
2018,06,10,12,20,15.30
2018,06,10,12,21,15.40
2018,06,10,12,22,15.40
2018,06,10,12,23,15.40
2018,06,10,12,24,15.30
2018,06,10,12,25,15.30
2018,06,10,12,26,15.20
2018,06,10,12,27,15.30
2018,06,10,12,28,15.30
2018,06,10,12,29,15.30
2018,06,10,12,30,15.30
2018,06,10,12,31,15.30
2018,06,10,12,32,15.30
2018,06,10,12,33,15.30
2018,06,10,12,34,15.40
2018,06,10,12,35,15.50
2018,06,10,12,36,15.60
2018,06,10,12,37,15.60
2018,06,10,12,38,15.60
2018,06,10,12,39,15.70
2018,06,10,12,40,15.70
2018,06,10,12,41,15.70
2018,06,10,12,42,15.70
2018,06,10,12,43,15.70
2018,06,10,12,44,15.70
2018,06,10,12,45,15.80
2018,06,10,12,46,15.90
2018,06,10,12,47,15.90
2018,06,10,12,48,15.90
2018,06,10,12,49,15.90
2018,06,10,12,50,15.90
2018,06,10,12,51,15.90
2018,06,10,12,52,16.00
2018,06,10,12,53,16.10
2018,06,10,12,54,16.20
2018,06,10,12,55,16.30
2018,06,10,12,56,16.30
2018,06,10,12,57,16.30
2018,06,10,12,58,16.40
2018,06,10,12,59,16.40
2018,06,10,13,00,16.30
2018,06,10,13,01,16.30
2018,06,10,13,02,16.30
2018,06,10,13,03,16.30
2018,06,10,13,04,16.30
2018,06,10,13,05,16.40
2018,06,10,13,06,16.50
2018,06,10,13,07,16.50
2018,06,10,13,08,16.60
2018,06,10,13,09,16.60
2018,06,10,13,10,16.60
2018,06,10,13,11,16.60
2018,06,10,13,12,16.50
2018,06,10,13,13,16.50
2018,06,10,13,14,16.50
2018,06,10,13,15,16.50
2018,06,10,13,16,16.60
2018,06,10,13,17,16.60
2018,06,10,13,18,16.60
2018,06,10,13,19,16.70
2018,06,10,13,20,16.70
2018,06,10,13,21,16.80
2018,06,10,13,22,16.80
2018,06,10,13,23,16.70
2018,06,10,13,24,16.70
2018,06,10,13,25,16.70
2018,06,10,13,26,16.70
2018,06,10,13,27,16.60
2018,06,10,13,28,16.60
2018,06,10,13,29,16.60
2018,06,10,13,30,16.60
2018,06,10,13,31,16.70
2018,06,10,13,32,16.80
2018,06,10,13,33,16.90
2018,06,10,13,34,16.90
2018,06,10,13,35,17.00
2018,06,10,13,36,17.10
2018,06,10,13,37,17.10
2018,06,10,13,38,17.10
2018,06,10,13,39,17.10
2018,06,10,13,40,17.00
2018,06,10,13,41,16.90
2018,06,10,13,42,16.90
2018,06,10,13,43,16.70
2018,06,10,13,44,16.60
2018,06,10,13,45,16.50
2018,06,10,13,46,16.50
2018,06,10,13,47,16.40
2018,06,10,13,48,16.30
2018,06,10,13,49,16.20
2018,06,10,13,50,16.10
2018,06,10,13,51,16.10
2018,06,10,13,52,16.00
2018,06,10,13,53,15.90
2018,06,10,13,54,15.80
2018,06,10,13,55,15.70
2018,06,10,13,56,15.60
2018,06,10,13,57,15.50
2018,06,10,13,58,15.40
2018,06,10,13,59,15.30
2018,06,10,14,00,15.20
2018,06,10,14,01,15.10
2018,06,10,14,02,15.00
2018,06,10,14,03,14.90
2018,06,10,14,04,15.00
2018,06,10,14,05,14.90
2018,06,10,14,06,14.90
2018,06,10,14,07,14.80
2018,06,10,14,08,14.70
2018,06,10,14,09,14.70
2018,06,10,14,10,14.70
2018,06,10,14,11,14.70
2018,06,10,14,12,14.70
2018,06,10,14,13,14.70
2018,06,10,14,14,14.60
2018,06,10,14,15,14.60
2018,06,10,14,16,14.60
2018,06,10,14,17,14.60
2018,06,10,14,18,14.60
2018,06,10,14,19,14.60
2018,06,10,14,20,14.60
2018,06,10,14,21,14.60
2018,06,10,14,22,14.70
2018,06,10,14,23,14.70
2018,06,10,14,24,14.80
2018,06,10,14,25,14.80
2018,06,10,14,26,14.70
2018,06,10,14,27,14.70
2018,06,10,14,28,14.70
2018,06,10,14,29,14.70
2018,06,10,14,30,14.70
2018,06,10,14,31,14.80
2018,06,10,14,32,14.80
2018,06,10,14,33,14.80
2018,06,10,14,34,14.70
2018,06,10,14,35,14.70
2018,06,10,14,36,14.60
2018,06,10,14,37,14.50
2018,06,10,14,38,14.40
2018,06,10,14,39,14.40
2018,06,10,14,40,14.30
2018,06,10,14,41,14.20
2018,06,10,14,42,14.20
2018,06,10,14,43,14.20
2018,06,10,14,44,14.20
2018,06,10,14,45,14.30
2018,06,10,14,46,14.30
2018,06,10,14,47,14.40
2018,06,10,14,48,14.40
2018,06,10,14,49,14.40
2018,06,10,14,50,14.50
2018,06,10,14,51,14.50
2018,06,10,14,52,14.60
2018,06,10,14,53,14.70
2018,06,10,14,54,14.80
2018,06,10,14,55,14.80
2018,06,10,14,56,14.90
2018,06,10,14,57,14.90
2018,06,10,14,58,14.90
2018,06,10,14,59,14.90
2018,06,10,15,00,14.90
2018,06,10,15,01,15.00
2018,06,10,15,02,15.00
2018,06,10,15,03,15.00
2018,06,10,15,04,15.00
2018,06,10,15,05,15.10
2018,06,10,15,06,15.20
2018,06,10,15,07,15.20
2018,06,10,15,08,15.20
2018,06,10,15,09,15.10
2018,06,10,15,10,15.10
2018,06,10,15,11,15.10
2018,06,10,15,12,15.20
2018,06,10,15,13,15.40
2018,06,10,15,14,15.50
2018,06,10,15,15,15.60
2018,06,10,15,16,15.70
2018,06,10,15,17,15.80
2018,06,10,15,18,15.90
2018,06,10,15,19,16.00
2018,06,10,15,20,16.10
2018,06,10,15,21,16.10
2018,06,10,15,22,16.00
2018,06,10,15,23,16.00
2018,06,10,15,24,15.90
2018,06,10,15,25,15.90
2018,06,10,15,26,15.80
2018,06,10,15,27,15.80
2018,06,10,15,28,15.80
2018,06,10,15,29,15.70
2018,06,10,15,30,15.70
2018,06,10,15,31,15.70
2018,06,10,15,32,15.70
2018,06,10,15,33,15.60
2018,06,10,15,34,15.60
2018,06,10,15,35,15.50
2018,06,10,15,36,15.50
2018,06,10,15,37,15.60
2018,06,10,15,38,15.60
2018,06,10,15,39,15.60
2018,06,10,15,40,15.70
2018,06,10,15,41,15.70
2018,06,10,15,42,15.80
2018,06,10,15,43,15.80
2018,06,10,15,44,15.80
2018,06,10,15,45,15.80
2018,06,10,15,46,15.80
2018,06,10,15,47,15.70
2018,06,10,15,48,15.70
2018,06,10,15,49,15.60
2018,06,10,15,50,15.60
2018,06,10,15,51,15.60
2018,06,10,15,52,15.50
2018,06,10,15,53,15.50
2018,06,10,15,54,15.50
2018,06,10,15,55,15.50
2018,06,10,15,56,15.60
2018,06,10,15,57,15.60
2018,06,10,15,58,15.60
2018,06,10,15,59,15.80
2018,06,10,16,00,15.90
2018,06,10,16,01,15.90
2018,06,10,16,02,15.90
2018,06,10,16,03,16.00
2018,06,10,16,04,16.00
2018,06,10,16,05,16.00
2018,06,10,16,06,16.00
2018,06,10,16,07,16.00
2018,06,10,16,08,16.00
2018,06,10,16,09,16.10
2018,06,10,16,10,16.00
2018,06,10,16,11,16.00
2018,06,10,16,12,15.90
2018,06,10,16,13,15.80
2018,06,10,16,14,15.80
2018,06,10,16,15,15.80
2018,06,10,16,16,15.80
2018,06,10,16,17,15.80
2018,06,10,16,18,15.70
2018,06,10,16,19,15.70
2018,06,10,16,20,15.60
2018,06,10,16,21,15.50
2018,06,10,16,22,15.50
2018,06,10,16,23,15.40
2018,06,10,16,24,15.50
2018,06,10,16,25,15.50
2018,06,10,16,26,15.60
2018,06,10,16,27,15.70
2018,06,10,16,28,15.80
2018,06,10,16,29,15.80
2018,06,10,16,30,15.90
2018,06,10,16,31,15.90
2018,06,10,16,32,15.90
2018,06,10,16,33,15.90
2018,06,10,16,34,15.90
2018,06,10,16,35,15.90
2018,06,10,16,36,15.80
2018,06,10,16,37,15.80
2018,06,10,16,38,15.70
2018,06,10,16,39,15.70
2018,06,10,16,40,15.60
2018,06,10,16,41,15.50
2018,06,10,16,42,15.40
2018,06,10,16,43,15.40
2018,06,10,16,44,15.40
2018,06,10,16,45,15.40
2018,06,10,16,46,15.40
2018,06,10,16,47,15.50
2018,06,10,16,48,15.60
2018,06,10,16,49,15.60
2018,06,10,16,50,15.50
2018,06,10,16,51,15.50
2018,06,10,16,52,15.40
2018,06,10,16,53,15.40
2018,06,10,16,54,15.40
2018,06,10,16,55,15.40
2018,06,10,16,56,15.40
2018,06,10,16,57,15.40
2018,06,10,16,58,15.40
2018,06,10,16,59,15.50
2018,06,10,17,00,15.50
2018,06,10,17,01,15.50
2018,06,10,17,02,15.50
2018,06,10,17,03,15.50
2018,06,10,17,04,15.40
2018,06,10,17,05,15.30
2018,06,10,17,06,15.30
2018,06,10,17,07,15.30
2018,06,10,17,08,15.30
2018,06,10,17,09,15.20
2018,06,10,17,10,15.30
2018,06,10,17,11,15.30
2018,06,10,17,12,15.40
2018,06,10,17,13,15.40
2018,06,10,17,14,15.50
2018,06,10,17,15,15.50
2018,06,10,17,16,15.50
2018,06,10,17,17,15.50
2018,06,10,17,18,15.40
2018,06,10,17,19,15.40
2018,06,10,17,20,15.40
2018,06,10,17,21,15.40
2018,06,10,17,22,15.50
2018,06,10,17,23,15.50
2018,06,10,17,24,15.60
2018,06,10,17,25,15.60
2018,06,10,17,26,15.60
2018,06,10,17,27,15.60
2018,06,10,17,28,15.60
2018,06,10,17,29,15.60
2018,06,10,17,30,15.60
2018,06,10,17,31,15.60
2018,06,10,17,32,15.60
2018,06,10,17,33,15.60
2018,06,10,17,34,15.60
2018,06,10,17,35,15.60
2018,06,10,17,36,15.60
2018,06,10,17,37,15.60
2018,06,10,17,38,15.70
2018,06,10,17,39,15.70
2018,06,10,17,40,15.70
2018,06,10,17,41,15.70
2018,06,10,17,42,15.80
2018,06,10,17,43,15.80
2018,06,10,17,44,15.80
2018,06,10,17,45,15.80
2018,06,10,17,46,15.80
2018,06,10,17,47,15.80
2018,06,10,17,48,15.90
2018,06,10,17,49,16.00
2018,06,10,17,50,16.00
2018,06,10,17,51,16.10
2018,06,10,17,52,16.20
2018,06,10,17,53,16.20
2018,06,10,17,54,16.20
2018,06,10,17,55,16.20
2018,06,10,17,56,16.20
2018,06,10,17,57,16.10
2018,06,10,17,58,15.90
2018,06,10,17,59,15.80
2018,06,10,18,00,15.60
2018,06,10,18,01,15.50
2018,06,10,18,02,15.40
2018,06,10,18,03,15.40
2018,06,10,18,04,15.30
2018,06,10,18,05,15.30
2018,06,10,18,06,15.30
2018,06,10,18,07,15.20
2018,06,10,18,08,15.20
2018,06,10,18,09,15.30
2018,06,10,18,10,15.30
2018,06,10,18,11,15.30
2018,06,10,18,12,15.30
2018,06,10,18,13,15.30
2018,06,10,18,14,15.30
2018,06,10,18,15,15.30
2018,06,10,18,16,15.30
2018,06,10,18,17,15.30
2018,06,10,18,18,15.30
2018,06,10,18,19,15.20
2018,06,10,18,20,15.30
2018,06,10,18,21,15.30
2018,06,10,18,22,15.30
2018,06,10,18,23,15.30
2018,06,10,18,24,15.30